TimeAKST,TemperatureF,Dew PointF,Humidity,Sea Level PressureIn,VisibilityMPH,Wind Direction,Wind SpeedMPH,Gust SpeedMPH,PrecipitationIn,Events,Conditions,WindDirDegrees,DateUTC
12:16 AM,15.8,8.6,73,29.55,10.0,ESE,13.8,-,N/A,,Clear,120,2013-02-12 09:16:00
12:36 AM,14.0,8.6,79,29.56,10.0,ESE,11.5,-,N/A,,Clear,120,2013-02-12 09:36:00
12:56 AM,12.2,6.8,79,29.56,10.0,ESE,8.1,-,N/A,,Clear,120,2013-02-12 09:56:00
1:16 AM,15.8,8.6,73,29.57,10.0,ESE,10.4,-,N/A,,Scattered Clouds,120,2013-02-12 10:16:00
1:36 AM,15.8,12.2,86,29.57,10.0,East,12.7,-,N/A,,Overcast,100,2013-02-12 10:36:00
1:56 AM,15.8,10.4,79,29.57,10.0,East,10.4,-,N/A,,Overcast,100,2013-02-12 10:56:00
2:16 AM,15.8,8.6,73,29.57,10.0,ESE,11.5,-,N/A,,Mostly Cloudy,110,2013-02-12 11:16:00
2:36 AM,15.8,10.4,79,29.57,10.0,ESE,9.2,-,N/A,,Overcast,120,2013-02-12 11:36:00
2:56 AM,15.8,8.6,73,29.57,10.0,East,9.2,-,N/A,,Overcast,100,2013-02-12 11:56:00
3:16 AM,15.8,10.4,79,29.57,10.0,ESE,9.2,-,N/A,,Mostly Cloudy,110,2013-02-12 12:16:00
3:36 AM,15.8,12.2,86,29.57,10.0,ESE,12.7,-,N/A,,Mostly Cloudy,120,2013-02-12 12:36:00
3:56 AM,17.6,14.0,86,29.57,10.0,ESE,12.7,-,N/A,,Overcast,120,2013-02-12 12:56:00
4:16 AM,15.8,10.4,79,29.57,10.0,ESE,13.8,-,N/A,,Scattered Clouds,110,2013-02-12 13:16:00
4:36 AM,15.8,10.4,79,29.57,10.0,ESE,10.4,-,N/A,,Clear,120,2013-02-12 13:36:00
4:56 AM,15.8,10.4,79,29.57,10.0,ESE,12.7,-,N/A,,Scattered Clouds,110,2013-02-12 13:56:00
5:16 AM,15.8,10.4,79,29.57,10.0,ESE,12.7,-,N/A,,Mostly Cloudy,120,2013-02-12 14:16:00
5:36 AM,17.6,10.4,73,29.57,10.0,ESE,13.8,-,N/A,,Overcast,110,2013-02-12 14:36:00
5:56 AM,17.6,12.2,79,29.57,10.0,ESE,13.8,-,N/A,,Overcast,110,2013-02-12 14:56:00
6:16 AM,17.6,12.2,79,29.57,10.0,ESE,13.8,-,N/A,,Scattered Clouds,110,2013-02-12 15:16:00
6:36 AM,17.6,10.4,73,29.57,10.0,ESE,13.8,-,N/A,,Partly Cloudy,110,2013-02-12 15:36:00
6:56 AM,17.6,10.4,73,29.57,10.0,ESE,13.8,-,N/A,,Partly Cloudy,110,2013-02-12 15:56:00
7:16 AM,17.6,12.2,79,29.57,10.0,ESE,12.7,-,N/A,,Mostly Cloudy,110,2013-02-12 16:16:00
7:36 AM,17.6,12.2,79,29.57,10.0,ESE,13.8,-,N/A,,Mostly Cloudy,110,2013-02-12 16:36:00
7:56 AM,17.6,12.2,79,29.56,10.0,ESE,12.7,-,N/A,,Mostly Cloudy,110,2013-02-12 16:56:00
8:16 AM,17.6,12.2,79,29.56,10.0,ESE,12.7,-,N/A,,Overcast,120,2013-02-12 17:16:00
8:36 AM,19.4,14.0,80,29.56,10.0,ESE,13.8,-,N/A,,Overcast,110,2013-02-12 17:36:00
8:56 AM,19.4,14.0,80,29.57,10.0,ESE,11.5,-,N/A,,Overcast,110,2013-02-12 17:56:00
9:16 AM,19.4,14.0,80,29.57,10.0,ESE,10.4,-,N/A,,Overcast,120,2013-02-12 18:16:00
9:36 AM,19.4,15.8,86,29.58,10.0,ESE,9.2,-,N/A,,Mostly Cloudy,110,2013-02-12 18:36:00
9:56 AM,19.4,12.2,74,29.58,10.0,ESE,9.2,-,N/A,,Overcast,110,2013-02-12 18:56:00
10:16 AM,19.4,14.0,80,29.58,10.0,ESE,9.2,-,N/A,,Overcast,120,2013-02-12 19:16:00
10:36 AM,21.2,15.8,80,29.59,10.0,ESE,10.4,-,N/A,,Overcast,120,2013-02-12 19:36:00
10:56 AM,21.2,17.6,86,29.59,10.0,ESE,12.7,-,N/A,,Overcast,120,2013-02-12 19:56:00
11:16 AM,21.2,15.8,80,29.59,10.0,ESE,12.7,-,N/A,,Overcast,120,2013-02-12 20:16:00
11:36 AM,23.0,15.8,74,29.59,10.0,ESE,11.5,-,N/A,,Overcast,120,2013-02-12 20:36:00
11:56 AM,23.0,15.8,74,29.60,10.0,ESE,11.5,-,N/A,,Overcast,120,2013-02-12 20:56:00
12:16 PM,24.8,17.6,74,29.60,10.0,ESE,9.2,-,N/A,,Overcast,120,2013-02-12 21:16:00
12:36 PM,24.8,17.6,74,29.60,10.0,ESE,12.7,-,N/A,,Overcast,120,2013-02-12 21:36:00
12:56 PM,24.8,19.4,80,29.60,10.0,ESE,10.4,-,N/A,,Overcast,120,2013-02-12 21:56:00
1:16 PM,24.8,19.4,80,29.60,10.0,ESE,10.4,-,N/A,,Overcast,120,2013-02-12 22:16:00
1:36 PM,24.8,19.4,80,29.60,10.0,ESE,9.2,-,N/A,,Overcast,120,2013-02-12 22:36:00
1:56 PM,26.6,21.2,80,29.60,10.0,ESE,10.4,-,N/A,,Overcast,120,2013-02-12 22:56:00
2:16 PM,26.6,19.4,74,29.60,10.0,ESE,8.1,-,N/A,,Overcast,110,2013-02-12 23:16:00
2:36 PM,28.4,21.2,74,29.60,10.0,ESE,9.2,-,N/A,,Overcast,120,2013-02-12 23:36:00
2:56 PM,28.4,19.4,69,29.60,10.0,ESE,8.1,-,N/A,,Mostly Cloudy,120,2013-02-12 23:56:00
3:16 PM,28.4,19.4,69,29.61,10.0,ESE,3.5,-,N/A,,Clear,120,2013-02-13 00:16:00
3:36 PM,26.6,19.4,74,29.60,10.0,ESE,10.4,-,N/A,,Clear,110,2013-02-13 00:36:00
3:56 PM,26.6,19.4,74,29.60,10.0,ESE,9.2,-,N/A,,Clear,110,2013-02-13 00:56:00
4:16 PM,28.4,23.0,80,29.59,10.0,ESE,8.1,-,N/A,,Mostly Cloudy,120,2013-02-13 01:16:00
4:36 PM,28.4,23.0,80,29.59,10.0,ESE,11.5,-,N/A,,Mostly Cloudy,120,2013-02-13 01:36:00
4:56 PM,28.4,21.2,74,29.58,10.0,ESE,13.8,18.4,N/A,,Partly Cloudy,110,2013-02-13 01:56:00
5:16 PM,26.6,21.2,80,29.58,10.0,ESE,10.4,-,N/A,,Clear,110,2013-02-13 02:16:00
5:36 PM,26.6,23.0,86,29.59,10.0,ESE,10.4,-,N/A,,Clear,120,2013-02-13 02:36:00
5:56 PM,26.6,19.4,74,29.59,10.0,ESE,11.5,-,N/A,,Mostly Cloudy,110,2013-02-13 02:56:00
6:16 PM,24.8,17.6,74,29.59,10.0,ESE,11.5,-,N/A,,Mostly Cloudy,110,2013-02-13 03:16:00
6:36 PM,24.8,17.6,74,29.59,10.0,ESE,11.5,-,N/A,,Mostly Cloudy,110,2013-02-13 03:36:00
6:56 PM,26.6,19.4,74,29.58,10.0,ESE,11.5,-,N/A,,Scattered Clouds,110,2013-02-13 03:56:00
7:16 PM,24.8,19.4,80,29.59,10.0,ESE,10.4,-,N/A,,Scattered Clouds,120,2013-02-13 04:16:00
7:36 PM,26.6,19.4,74,29.59,10.0,ESE,10.4,-,N/A,,Mostly Cloudy,120,2013-02-13 04:36:00
7:56 PM,24.8,19.4,80,29.59,10.0,ESE,9.2,-,N/A,,Overcast,120,2013-02-13 04:56:00
8:16 PM,24.8,19.4,80,29.59,10.0,ESE,10.4,-,N/A,,Overcast,120,2013-02-13 05:16:00
8:36 PM,24.8,19.4,80,29.59,10.0,ESE,10.4,-,N/A,,Mostly Cloudy,120,2013-02-13 05:36:00
8:56 PM,24.8,17.6,74,29.59,10.0,SE,9.2,-,N/A,,Scattered Clouds,130,2013-02-13 05:56:00
9:16 PM,24.8,17.6,74,29.59,10.0,ESE,10.4,-,N/A,,Mostly Cloudy,120,2013-02-13 06:16:00
9:36 PM,24.8,19.4,80,29.60,10.0,SE,8.1,-,N/A,,Overcast,140,2013-02-13 06:36:00
9:56 PM,24.8,19.4,80,29.61,10.0,SSE,5.8,-,N/A,,Mostly Cloudy,160,2013-02-13 06:56:00
10:16 PM,24.8,19.4,80,29.62,10.0,SSW,4.6,-,N/A,,Overcast,200,2013-02-13 07:16:00
10:36 PM,24.8,21.2,86,29.63,10.0,Calm,Calm,-,N/A,,Overcast,0,2013-02-13 07:36:00
10:56 PM,23.0,19.4,86,29.64,10.0,Calm,Calm,-,N/A,,Overcast,0,2013-02-13 07:56:00
11:16 PM,23.0,19.4,86,29.64,10.0,SSW,3.5,-,N/A,,Overcast,210,2013-02-13 08:16:00
11:36 PM,21.2,17.6,86,29.64,10.0,WSW,3.5,-,N/A,,Overcast,240,2013-02-13 08:36:00
11:56 PM,21.2,17.6,86,29.65,10.0,Calm,Calm,-,N/A,,Overcast,0,2013-02-13 08:56:00